Central Park, NY

5:05 AM EDT on June 21, 2018 (GMT -0400)
Central Park

Weather History for KNYC - November, 2017

Change the Weather History Date:

Tuesday, November 14, 2017

  Actual Average Record
Temperature  
Mean Temperature 42 °F 48 °F  
Max Temperature 48 °F 55 °F 72 °F (1993)
Min Temperature 35 °F 42 °F 20 °F (1905)
Degree Days  
Heating Degree Days 23 17  
Month to date heating degree days 239 207  
Since 1 July heating degree days 355 520  
Cooling Degree Days 0 0  
Month to date cooling degree days 0 0  
Year to date cooling degree days 1265 1104  
Moisture  
Dew Point 33 °F    
Average Humidity 71    
Maximum Humidity 82    
Minimum Humidity 60    
Precipitation  
Precipitation 0.00 in 0.13 in 2.23 in (1972)
Month to date precipitation 0.81 1.82  
Year to date precipitation 42.06 43.74  
Snow  
Snow 0.00 in 0.00 in 1.00 in (1911)
Month to date snowfall 0.0 0.0  
Since 1 July snowfall 0.0 0.0  
Snow Depth 0.00 in    
Sea Level Pressure  
Sea Level Pressure 30.31 in    
Wind  
Wind Speed 5 mph (NE)    
Max Wind Speed 12 mph    
Max Gust Speed 16 mph    
Visibility 10 miles    
Events      
T = Trace of Precipitation, MM = Missing Value Source: NWS Daily Summary

Daily Weather History Graph

Daily Weather History Graph

Search for Another Location

Airport or City:

Astronomy

Nov. 14, 2017 Rise Set
Actual Time 6:41 AM EST 4:38 PM EST
Civil Twilight 6:12 AM EST 5:07 PM EST
Nautical Twilight 5:39 AM EST 5:40 PM EST
Astronomical Twilight 5:07 AM EST 6:13 PM EST
Moon 2:38 AM EST (11/14) 3:03 PM EST (11/14)
Length of Visible Light 10h 55m
Length of Day
9h 56m
Waning Crescent, 14% of the Moon is Illuminated
Nov 14
Waning Crescent
Nov 18
New
Nov 26
First Quarter
Dec 3
Full
Dec 10
Last Quarter

Hourly Weather History & Observations

Time (EST) Temp. Windchill Dew Point Humidity Pressure Visibility Wind Dir Wind Speed Gust Speed Precip Events Conditions
12:51 AM 39.9 °F 37.8 °F 30.0 °F 68% 30.29 in 10.0 mi Variable 3.5 mph - N/A   Clear
1:51 AM 39.0 °F - 30.0 °F 70% 30.30 in 10.0 mi Calm Calm - N/A   Clear
2:51 AM 37.9 °F 34.4 °F 30.0 °F 73% 30.30 in 10.0 mi Variable 4.6 mph - N/A   Clear
3:51 AM 37.9 °F 35.5 °F 30.0 °F 73% 30.30 in 10.0 mi Variable 3.5 mph - N/A   Clear
4:51 AM 37.0 °F 33.3 °F 30.0 °F 76% 30.30 in 10.0 mi Variable 4.6 mph - N/A   Clear
5:51 AM 36.0 °F 33.3 °F 30.0 °F 79% 30.31 in 10.0 mi Variable 3.5 mph - N/A   Clear
6:51 AM 36.0 °F 32.1 °F 30.0 °F 79% 30.32 in 9.0 mi Variable 4.6 mph - N/A   Clear
7:51 AM 37.9 °F 33.5 °F 30.9 °F 76% 30.34 in 10.0 mi North 5.8 mph - N/A   Clear
8:51 AM 41.0 °F 37.1 °F 32.0 °F 70% 30.34 in 10.0 mi Variable 5.8 mph - N/A   Clear
9:09 AM 41.0 °F 37.1 °F 33.1 °F 73% 30.36 in 10.0 mi Variable 5.8 mph - N/A   Mostly Cloudy
9:51 AM 42.1 °F - 33.1 °F 70% 30.34 in 10.0 mi North - - N/A   Mostly Cloudy
10:51 AM 44.1 °F - 34.0 °F 68% 30.33 in 10.0 mi North - - N/A   Mostly Cloudy
11:01 AM 45.0 °F 41.8 °F 34.0 °F 65% 30.34 in 10.0 mi ENE 5.8 mph - N/A   Scattered Clouds
11:41 AM 45.0 °F 41.8 °F 34.0 °F 65% 30.33 in 10.0 mi NE 5.8 mph - N/A   Overcast
11:51 AM 45.0 °F 42.6 °F 34.0 °F 65% 30.31 in 10.0 mi Variable 4.6 mph - N/A   Overcast
12:31 PM 46.0 °F 43.1 °F 33.1 °F 61% 30.32 in 10.0 mi Variable 5.8 mph - N/A   Overcast
12:46 PM 46.4 °F 43.5 °F 33.8 °F 62% 30.31 in 10.0 mi Variable 5.8 mph - N/A   Overcast
12:51 PM 46.9 °F - 34.0 °F 61% 30.29 in 10.0 mi Variable 5.8 mph - N/A   Overcast
1:51 PM 46.9 °F - 34.0 °F 61% 30.28 in 10.0 mi Variable 3.5 mph - N/A   Overcast
2:12 PM 46.0 °F 42.5 °F 33.1 °F 61% 30.30 in 10.0 mi Variable 6.9 mph - N/A   Overcast
2:51 PM 46.0 °F 42.5 °F 33.1 °F 61% 30.28 in 10.0 mi NE 6.9 mph - N/A   Overcast
2:58 PM 46.0 °F 41.9 °F 33.1 °F 61% 30.30 in 10.0 mi ENE 8.1 mph - N/A   Overcast
3:11 PM 46.9 °F - 34.0 °F 61% 30.30 in 10.0 mi Variable 5.8 mph - N/A   Overcast
3:51 PM 45.0 °F 41.8 °F 34.0 °F 65% 30.28 in 10.0 mi Variable 5.8 mph - N/A   Overcast
4:51 PM 44.1 °F 41.5 °F 34.0 °F 68% 30.29 in 10.0 mi Variable 4.6 mph - N/A   Overcast
5:08 PM 44.1 °F 40.1 °F 34.0 °F 68% 30.31 in 10.0 mi Variable 6.9 mph - N/A   Overcast
5:18 PM 44.1 °F 40.8 °F 34.0 °F 68% 30.32 in 10.0 mi Variable 5.8 mph - N/A   Overcast
5:31 PM 43.0 °F 38.2 °F 34.0 °F 71% 30.32 in 10.0 mi NE 8.1 mph - N/A   Overcast
5:51 PM 43.0 °F 38.8 °F 34.0 °F 71% 30.30 in 10.0 mi ENE 6.9 mph - N/A   Overcast
6:51 PM 43.0 °F 40.3 °F 34.0 °F 71% 30.30 in 10.0 mi Variable 4.6 mph - N/A   Overcast
7:51 PM 43.0 °F 40.3 °F 34.0 °F 71% 30.30 in 10.0 mi Variable 4.6 mph - N/A   Overcast
8:51 PM 42.1 °F 37.7 °F 33.1 °F 70% 30.31 in 10.0 mi NE 6.9 mph - N/A   Overcast
9:51 PM 41.0 °F 39.0 °F 33.1 °F 73% 30.30 in 10.0 mi Variable 3.5 mph - N/A   Mostly Cloudy
10:51 PM 41.0 °F 36.4 °F 30.9 °F 67% 30.29 in 10.0 mi ENE 6.9 mph - N/A   Overcast
11:51 PM 41.0 °F 36.4 °F 30.0 °F 65% 30.30 in 10.0 mi Variable 6.9 mph - N/A   Overcast